ANA211 RJTT-EGLL

Flight info

Callsign ANA211
Flight time N/A
Altitude 31000
Route INUBO Y808 PUTER/N0497F330 A590 PASRO/N0488F340 A590 POWAL/N0496F330 DCT HEDMI R338 MARCC/N0483F350 DCT JUJXI DCT 71N160W DCT AGMIF DCT 79N120W 80N100W/N0493F370 80N080W DCT BUDUM/M084F370 DCT 80N060W 79N050W 77N040W 74N030W 70N020W DCT RATSU/N0491F390 DCT BARKU DCT ELBUS DCT AKOMU DCT VAMEB DCT NUGRA
Aircraft B77W/H-SDE1E2E3FGHIJ2J3J4J5M1RWXY/LB1D1

Departure

Time N/A
Airport Tokyo Haneda International Airport (RJTT)

Arrival

Time 2026-05-07 15:33
Airport London Heathrow Airport (EGLL)
Time Latitude Longitude Altitude Speed Heading
2026-05-07 14:47 55.22090 -3.83283 38957 ft 467 kts 156°
2026-05-07 14:48 55.16284 -3.78158 38967 ft 468 kts 155°
2026-05-07 14:48 55.10460 -3.73034 38993 ft 469 kts 155°
2026-05-07 14:49 55.04621 -3.67913 38980 ft 471 kts 155°
2026-05-07 14:49 54.98762 -3.62791 39001 ft 471 kts 155°
2026-05-07 14:50 54.92898 -3.57681 38990 ft 471 kts 155°
2026-05-07 14:50 54.87033 -3.52588 38990 ft 472 kts 155°
2026-05-07 14:51 54.81156 -3.47500 38993 ft 472 kts 155°
2026-05-07 14:51 54.75280 -3.42431 39000 ft 472 kts 155°
2026-05-07 14:52 54.69438 -3.37407 38991 ft 471 kts 155°
2026-05-07 14:52 54.63563 -3.32370 38996 ft 471 kts 155°
2026-05-07 14:53 54.57690 -3.27351 38997 ft 471 kts 156°
2026-05-07 14:53 54.51787 -3.22323 38997 ft 470 kts 155°
2026-05-07 14:54 54.45959 -3.17375 38995 ft 470 kts 156°
2026-05-07 14:54 54.40107 -3.12423 39002 ft 470 kts 155°
2026-05-07 14:55 54.34274 -3.07504 39002 ft 471 kts 155°
2026-05-07 14:55 54.28352 -3.02523 39011 ft 471 kts 155°
2026-05-07 14:56 54.22461 -2.97583 39012 ft 472 kts 155°
2026-05-07 14:56 54.16561 -2.92655 39017 ft 472 kts 156°
2026-05-07 14:57 54.10526 -2.88199 39022 ft 472 kts 159°
2026-05-07 14:57 54.04453 -2.83920 39019 ft 473 kts 158°
2026-05-07 14:58 53.98577 -2.79877 39016 ft 471 kts 163°
2026-05-07 14:58 53.92320 -2.76573 39017 ft 471 kts 164°
2026-05-07 14:59 53.86284 -2.73454 39016 ft 471 kts 164°
2026-05-07 14:59 53.80024 -2.70185 39021 ft 471 kts 164°
2026-05-07 15:00 53.73804 -2.66921 39024 ft 471 kts 164°
2026-05-07 15:00 53.67556 -2.63643 39021 ft 470 kts 164°
2026-05-07 15:01 53.61311 -2.60379 39021 ft 470 kts 164°
2026-05-07 15:01 53.55025 -2.57106 39015 ft 470 kts 164°
2026-05-07 15:02 53.48781 -2.53866 39023 ft 469 kts 164°
2026-05-07 15:02 53.42535 -2.50634 39026 ft 470 kts 164°
2026-05-07 15:03 53.36285 -2.47410 39022 ft 470 kts 164°
2026-05-07 15:03 53.30013 -2.44184 38870 ft 472 kts 164°
2026-05-07 15:04 53.26873 -2.42573 38589 ft 471 kts 164°
2026-05-07 15:04 53.23752 -2.40974 38116 ft 467 kts 163°
2026-05-07 15:04 53.20651 -2.39388 37575 ft 465 kts 163°
2026-05-07 15:04 53.17560 -2.37809 36990 ft 463 kts 163°
2026-05-07 15:05 53.14489 -2.36242 36420 ft 460 kts 163°
2026-05-07 15:05 53.11449 -2.34693 35870 ft 455 kts 163°
2026-05-07 15:05 53.08437 -2.33161 35337 ft 450 kts 162°
2026-05-07 15:05 53.05456 -2.31648 34803 ft 445 kts 162°
2026-05-07 15:06 53.02539 -2.30024 34311 ft 439 kts 156°
2026-05-07 15:06 52.99888 -2.27597 33797 ft 433 kts 147°
2026-05-07 15:06 52.97381 -2.24892 33311 ft 427 kts 146°
2026-05-07 15:06 52.94924 -2.22187 32827 ft 422 kts 146°
2026-05-07 15:07 52.92488 -2.19521 32340 ft 417 kts 147°
2026-05-07 15:07 52.90066 -2.16909 31866 ft 413 kts 147°
2026-05-07 15:07 52.87662 -2.14354 31396 ft 409 kts 147°
2026-05-07 15:07 52.85271 -2.11837 30938 ft 405 kts 148°
2026-05-07 15:08 52.82930 -2.09390 30478 ft 401 kts 148°
2026-05-07 15:08 52.80579 -2.06942 30033 ft 398 kts 148°
2026-05-07 15:08 52.78218 -2.04489 29544 ft 393 kts 148°
2026-05-07 15:08 52.75944 -2.02130 29102 ft 389 kts 148°
2026-05-07 15:09 52.73628 -1.99730 28625 ft 386 kts 148°
2026-05-07 15:09 52.71355 -1.97376 28173 ft 387 kts 148°
2026-05-07 15:09 52.69066 -1.95010 27759 ft 389 kts 148°
2026-05-07 15:09 52.66770 -1.92639 27353 ft 391 kts 148°
2026-05-07 15:10 52.64465 -1.90261 26929 ft 390 kts 149°
2026-05-07 15:10 52.62139 -1.87865 26504 ft 389 kts 149°
2026-05-07 15:10 52.59851 -1.85509 26089 ft 387 kts 149°
2026-05-07 15:10 52.57565 -1.83160 25680 ft 386 kts 149°
2026-05-07 15:11 52.55294 -1.80829 25285 ft 385 kts 149°
2026-05-07 15:11 52.53027 -1.78505 24884 ft 383 kts 149°
2026-05-07 15:11 52.50770 -1.76194 24497 ft 382 kts 150°
2026-05-07 15:11 52.48521 -1.73893 24117 ft 381 kts 150°
2026-05-07 15:12 52.46307 -1.71631 23761 ft 379 kts 150°
2026-05-07 15:12 52.44039 -1.69318 23362 ft 377 kts 150°
2026-05-07 15:12 52.42573 -1.67824 23084 ft 376 kts 150°
2026-05-07 15:12 52.39636 -1.64834 22554 ft 374 kts 150°
2026-05-07 15:13 52.37429 -1.62591 22157 ft 373 kts 150°
2026-05-07 15:13 52.35970 -1.61109 21883 ft 371 kts 150°
2026-05-07 15:13 52.33042 -1.58138 21356 ft 369 kts 150°
2026-05-07 15:13 52.30868 -1.55935 21004 ft 367 kts 150°
2026-05-07 15:14 52.29432 -1.54482 20761 ft 366 kts 150°
2026-05-07 15:14 52.27277 -1.52301 20377 ft 363 kts 150°
2026-05-07 15:14 52.25141 -1.50143 20078 ft 358 kts 150°
2026-05-07 15:14 52.23039 -1.48023 20082 ft 352 kts 150°
2026-05-07 15:15 52.20972 -1.45870 20004 ft 356 kts 147°
2026-05-07 15:15 52.19003 -1.43333 19575 ft 363 kts 141°
2026-05-07 15:15 52.17109 -1.40610 19201 ft 361 kts 140°
2026-05-07 15:15 52.15248 -1.37885 18836 ft 358 kts 140°
2026-05-07 15:16 52.13399 -1.35206 18483 ft 354 kts 141°
2026-05-07 15:16 52.11559 -1.32584 18091 ft 349 kts 141°
2026-05-07 15:16 52.09733 -1.30011 17695 ft 345 kts 141°
2026-05-07 15:16 52.07926 -1.27485 17345 ft 340 kts 141°
2026-05-07 15:17 52.06136 -1.24995 16995 ft 336 kts 141°
2026-05-07 15:17 52.04370 -1.22544 16644 ft 332 kts 141°
2026-05-07 15:17 52.02618 -1.20117 16269 ft 330 kts 141°
2026-05-07 15:17 52.00871 -1.17699 15890 ft 330 kts 141°
2026-05-07 15:18 51.99128 -1.15289 15469 ft 329 kts 141°
2026-05-07 15:18 51.97391 -1.12891 15109 ft 326 kts 141°
2026-05-07 15:18 51.95651 -1.10492 15038 ft 330 kts 141°
2026-05-07 15:18 51.93900 -1.08078 14840 ft 328 kts 141°
2026-05-07 15:19 51.92175 -1.05701 14504 ft 326 kts 141°
2026-05-07 15:19 51.90456 -1.03334 14170 ft 321 kts 141°
2026-05-07 15:19 51.88760 -1.01004 13850 ft 318 kts 141°
2026-05-07 15:19 51.87079 -0.98696 13427 ft 316 kts 141°
2026-05-07 15:20 51.85449 -0.96345 12909 ft 311 kts 133°
2026-05-07 15:20 51.84302 -0.93371 12208 ft 315 kts 116°
2026-05-07 15:20 51.83368 -0.90140 11663 ft 318 kts 117°
2026-05-07 15:20 51.82408 -0.86912 11189 ft 319 kts 117°
2026-05-07 15:21 51.81443 -0.83704 10817 ft 316 kts 117°
2026-05-07 15:21 51.80477 -0.80522 10441 ft 314 kts 118°
2026-05-07 15:21 51.79517 -0.77379 10033 ft 307 kts 118°
2026-05-07 15:21 51.78598 -0.74374 9682 ft 289 kts 118°
2026-05-07 15:22 51.77723 -0.71521 9175 ft 279 kts 118°
2026-05-07 15:22 51.76870 -0.68750 8769 ft 274 kts 118°
2026-05-07 15:22 51.76021 -0.65992 8419 ft 274 kts 118°
2026-05-07 15:22 51.75169 -0.63234 8055 ft 274 kts 118°
2026-05-07 15:23 51.74318 -0.60482 7739 ft 273 kts 118°
2026-05-07 15:23 51.73473 -0.57753 7447 ft 270 kts 118°
2026-05-07 15:23 51.72352 -0.55427 7112 ft 260 kts 148°
2026-05-07 15:23 51.70704 -0.54671 7068 ft 240 kts 182°
2026-05-07 15:24 51.69026 -0.54756 7069 ft 246 kts 180°
2026-05-07 15:24 51.67318 -0.54686 7044 ft 243 kts 179°
2026-05-07 15:24 51.65651 -0.54589 7039 ft 236 kts 179°
2026-05-07 15:24 51.64025 -0.54510 7035 ft 231 kts 182°
2026-05-07 15:25 51.62461 -0.55077 7056 ft 234 kts 206°
2026-05-07 15:25 51.61164 -0.56678 7053 ft 238 kts 230°
2026-05-07 15:25 51.60384 -0.59010 7051 ft 238 kts 252°
2026-05-07 15:25 51.60086 -0.61627 7050 ft 238 kts 263°
2026-05-07 15:26 51.59939 -0.64284 7061 ft 239 kts 265°
2026-05-07 15:26 51.59807 -0.66970 6848 ft 245 kts 264°
2026-05-07 15:26 51.59653 -0.69701 6620 ft 243 kts 264°
2026-05-07 15:26 51.59492 -0.72427 6310 ft 241 kts 263°
2026-05-07 15:27 51.59329 -0.75109 5991 ft 240 kts 263°
2026-05-07 15:27 51.58864 -0.77609 5608 ft 233 kts 235°
2026-05-07 15:27 51.57628 -0.79199 5322 ft 230 kts 203°
2026-05-07 15:27 51.56071 -0.79706 4995 ft 229 kts 182°
2026-05-07 15:28 51.54494 -0.79650 4695 ft 225 kts 178°
2026-05-07 15:28 51.52942 -0.79531 4348 ft 221 kts 178°
2026-05-07 15:28 51.51428 -0.79418 4035 ft 215 kts 178°
2026-05-07 15:28 51.49952 -0.79295 3720 ft 208 kts 175°
2026-05-07 15:29 51.48653 -0.78446 3412 ft 203 kts 139°
2026-05-07 15:29 51.47993 -0.76542 3141 ft 196 kts 101°
2026-05-07 15:29 51.47842 -0.74407 3079 ft 196 kts 97°
2026-05-07 15:29 51.47712 -0.72230 3016 ft 195 kts 94°
2026-05-07 15:30 51.47674 -0.70051 2748 ft 194 kts 91°
2026-05-07 15:30 51.47677 -0.67926 2486 ft 189 kts 91°
2026-05-07 15:30 51.47685 -0.65835 2253 ft 183 kts 91°
2026-05-07 15:30 51.47692 -0.63877 1994 ft 166 kts 91°
2026-05-07 15:31 51.47701 -0.62141 1779 ft 150 kts 91°
2026-05-07 15:31 51.47706 -0.60462 1601 ft 151 kts 92°
2026-05-07 15:31 51.47712 -0.58781 1393 ft 150 kts 91°
2026-05-07 15:31 51.47718 -0.57116 1186 ft 149 kts 92°
2026-05-07 15:32 51.47723 -0.55458 977 ft 148 kts 91°
2026-05-07 15:32 51.47736 -0.53835 774 ft 142 kts 90°
2026-05-07 15:32 51.47737 -0.52257 571 ft 141 kts 90°
2026-05-07 15:32 51.47743 -0.50717 382 ft 137 kts 89°
2026-05-07 15:33 51.47751 -0.49182 202 ft 137 kts 90°
2026-05-07 15:33 51.47755 -0.47675 95 ft 130 kts 90°
2026-05-07 15:33 51.47760 -0.46442 96 ft 85 kts 89°
2026-05-07 15:33 51.47761 -0.45807 91 ft 35 kts 90°
2026-05-07 15:34 51.47761 -0.45578 91 ft 16 kts 95°
2026-05-07 15:34 51.47712 -0.45478 93 ft 9 kts 158°
2026-05-07 15:34 51.47669 -0.45469 91 ft 5 kts 176°
2026-05-07 15:34 51.47626 -0.45466 91 ft 9 kts 178°
2026-05-07 15:35 51.47544 -0.45463 91 ft 10 kts 170°
2026-05-07 15:35 51.47514 -0.45385 95 ft 9 kts 100°
2026-05-07 15:35 51.47510 -0.45283 94 ft 10 kts 91°
2026-05-07 15:35 51.47510 -0.45169 95 ft 11 kts 90°
2026-05-07 15:36 51.47510 -0.45037 94 ft 13 kts 90°
2026-05-07 15:36 51.47511 -0.44889 94 ft 14 kts 90°
2026-05-07 15:36 51.47511 -0.44734 94 ft 14 kts 90°
2026-05-07 15:36 51.47506 -0.44596 94 ft 12 kts 95°
2026-05-07 15:37 51.47505 -0.44461 94 ft 12 kts 90°
2026-05-07 15:37 51.47505 -0.44324 94 ft 12 kts 90°
2026-05-07 15:37 51.47504 -0.44186 94 ft 12 kts 89°
2026-05-07 15:37 51.47490 -0.44088 96 ft 9 kts 136°
2026-05-07 15:38 51.47427 -0.44060 93 ft 10 kts 177°
2026-05-07 15:38 51.47357 -0.44058 91 ft 10 kts 180°
2026-05-07 15:38 51.47283 -0.44058 91 ft 11 kts 180°
2026-05-07 15:38 51.47219 -0.44061 92 ft 7 kts 190°
2026-05-07 15:39 51.47190 -0.44125 93 ft 8 kts 262°
2026-05-07 15:39 51.47188 -0.44184 94 ft 3 kts 268°
2026-05-07 15:39 51.47188 -0.44201 91 ft 1 kts 268°
2026-05-07 15:39 51.47188 -0.44202 91 ft 0 kts 269°